Regional Weather Roundup
Issued by NWS

Home | Current Version | Previous Version | Text Only | Print | Product List | Glossary On
Versions: 1 2 3 4 5 6 7 8 9 10 11 12 13 14 15 16 17 18 19 20 21 22 23 24 25 26 27 28
000
ASUS45 KBOU 051410
RWRCO

WEATHER ROUNDUP FOR COLORADO
NATIONAL WEATHER SERVICE DENVER/BOULDER CO
700 AM MST TUE MAR 05 2024

NOTE: "FAIR" INDICATES FEW OR NO CLOUDS BELOW 12000 FEET WITH NO
SIGNIFICANT WEATHER AND/OR OBSTRUCTIONS TO VISIBILITY.

COZ001>005-013-030-031-051500-
...NORTHWEST COLORADO...

CITY           SKY/WX    TMP DP  RH WIND       PRES   REMARKS
CRAIG          CLOUDY    21  16  81 NE6       30.06S WCI  13
HAYDEN         LGT SNOW  19  17  92 SE7       30.07S FOG     WCI  10
MEEKER         LGT SNOW  20  18  92 CALM      30.05R VSB 1
RANGELY        MOCLDY    25  19  78 CALM      30.07F
RABBIT EARS PA LGT SNOW  12  12 100 NW6       29.96R VSB 3/4 WCI   3
STEAMBOAT SPGS NOT AVBL
WALDEN         NOT AVBL
$$

COZ006>008-011-051500-
...WEST CENTRAL VALLEYS...

CITY           SKY/WX    TMP DP  RH WIND       PRES   REMARKS
GRAND JUNCTION CLOUDY    35  28  75 CALM      30.02R
MONTROSE       CLOUDY    29  26  89 SE3       30.03R
EAGLE          CLOUDY    26  25  96 CALM      30.06R FOG
RIFLE          CLOUDY    30  24  78 CALM      30.05R
DELTA          NOT AVBL
NUCLA          NOT AVBL
$$

COZ017>023-064>068-051500-
...SOUTHWEST COLORADO...

CITY           SKY/WX    TMP DP  RH WIND       PRES   REMARKS
DURANGO        FAIR      21  14  74 NE5       30.04R WCI  15
CORTEZ         FAIR      22  16  78 VRB3      30.03S
PAGOSA SPRINGS FAIR      21  17  84 CALM      30.05S
TELLURIDE      CLOUDY    28   9  43 S7        30.06R WCI  21
WOLF CREEK PAS FAIR      14   9  79 SW16      30.09R WCI  -2
$$

COZ009-010-012-014-032>034-037-058>063-051500-
...CENTRAL COLORADO...

CITY           SKY/WX    TMP DP  RH WIND       PRES   REMARKS
ASPEN          CLOUDY    23  20  88 S5        30.02R WCI  17
BUENA VISTA    FAIR      31  13  49 NW9       29.99R WCI  22
COPPER MTN     LGT SNOW  19  14  79 SW13      29.99R WCI   7
BERTHOUD PASS  CLOUDY    10   7  85 W39G53    29.90R WCI -14
DAKOTA HILL    FAIR      14  10  85 W18G30    29.91R WCI  -3
COTTONWOOD PAS FAIR      27  14  59 NW9       29.99R WCI  17
GUNNISON       FAIR      22  14  71 N5        30.05R WCI  16
GRANBY         LGT SNOW  19  18  93 CALM      30.02R
KREMMLING      LGT SNOW  19  18  93 CALM      30.04R
LEADVILLE      FAIR      13   9  84 NE8       29.98R WCI   2
MONARCH PASS     N/A     12   9  85 W16G30    30.10R WCI  -4
SALIDA         FAIR      33  12  42 SW15      29.99R WCI  22
SUNLIGHT       LGT SNOW  18  14  86 SW9G17    30.04R WCI   6
WILKERSON PASS FAIR      19  10  68 S17       29.99R WCI   4
$$

COZ069>075-051500-
...SAN LUIS VALLEY/SANGRE DE CRISTO MOUNTAINS...

CITY           SKY/WX    TMP DP  RH WIND       PRES   REMARKS
ALAMOSA        FAIR      18  10  71 CALM      30.02R
DEL NORTE      FAIR      22   9  56 W14       30.03R WCI   9
LA VETA PASS   FAIR      23  10  58 W6        30.12R WCI  16
SAGUACHE       FAIR      23  10  58 NW10      30.05R WCI  12
$$

COZ035-036-038>040-051500-
...NORTHERN COLORADO FRONT RANGE...

CITY           SKY/WX    TMP DP  RH WIND       PRES   REMARKS
DENVER INTL AP FAIR      22  15  75 S12       30.04R WCI  10
AURORA         PTCLDY    22  15  74 S7        30.04R WCI  13
WATKINS        NOT AVBL
ERIE           FAIR      24  16  73 CALM      30.05R
BOULDER        FAIR      28  19  69 S3        30.04R
CENTENNIAL     FAIR      24  15  68 S9        30.03R WCI  14
BROOMFIELD     PTCLDY    27  18  69 S8        30.04R WCI  18
FORT COLLINS   FAIR      27  16  63 CALM      30.07R
LONGMONT       FAIR      27  18  68 CALM      30.08R
$$

COZ041-046-047-076>085-087-088-051500-
...PIKES PEAK/PALMER DIVIDE AND SOUTHERN FOOTHILLS...

CITY           SKY/WX    TMP DP  RH WIND       PRES   REMARKS
COLO. SPRINGS  FAIR      25  17  72 N10       30.02R WCI  15
A. F. ACADEMY  FAIR      22  14  71 N13       29.99R WCI  10
SCHRIEVER AFB  FAIR      22  18  82 N12       29.98R WCI  11
CHEYENNE MTN   FAIR      26  14  61 NW9       29.98R WCI  16
ELLICOTT       FAIR      22  18  83 NE17      30.01R WCI   8
FALCON         FAIR      20  16  85 N12G17    30.01R WCI   8
FORT CARSON    FAIR      27  15  60 N12       30.00R WCI  16
LIMON          FAIR      26  18  71 NE18G25   30.03R WCI  13
MONUMENT HILL  FAIR      19  -4  35 E9        30.02R WCI   9
CANON CITY     FAIR      27  18  69 SW3       30.03R
WALSENBURG     NOT AVBL
TRINIDAD       FAIR      24  13  62 NW9       30.03R WCI  14
$$

COZ042>045-048>051-090-091-051500-
...NORTHEAST COLORADO...

CITY           SKY/WX    TMP DP  RH WIND       PRES   REMARKS
GREELEY        FAIR      22  16  78 CALM      30.09R
AKRON          FAIR      22  16  78 E7        30.07R WCI  13
BURLINGTON     FAIR      24  17  74 NE10      30.07R WCI  14
WRAY           FAIR      21  19  93 CALM      30.11R
YUMA           FAIR      21  19  93 CALM      30.09R
STERLING       FAIR      21  12  68 SW5       30.08R WCI  15
HOLYOKE        FAIR      27  23  86 CALM      30.10S
FORT MORGAN    FAIR      19  19 100 CALM      30.08R
$$

COZ086-089-092>099-051500-
...SOUTHEAST COLORADO...

CITY           SKY/WX    TMP DP  RH WIND       PRES   REMARKS
PUEBLO         FAIR      29  18  63 N3        30.06R
LA JUNTA       FAIR      27  18  69 N12       30.04R WCI  17
LAMAR          FAIR      28  22  78 E7        30.05R WCI  21
SPRINGFIELD      N/A     27  20  75 N3        30.01R
$$



USA.gov is the U.S. government's official web portal to all federal, state and local government web resources and services.